Wetterdaten: Mittwoch, 24.10.2018
Datum Zeit Temp. A. Aussen2m Boden Feuchte A. Feuchte 2 Luftdruck Regen Wind Richtung Richtung Sonnenschein
24.10.2018 00:00 12,6 C 7,8 C 10,8 C 81 % 76 % 1018,8 hPa 0,0 l/m 12,7 km/h (3 Bft) N-NW 330 0 min
24.10.2018 00:05 12,6 C 7,8 C 10,8 C 81 % 76 % 1019,8 hPa 0,0 l/m 20,6 km/h (4 Bft) W-SW 245 0 min
24.10.2018 00:10 12,7 C 7,8 C 10,8 C 81 % 76 % 1019,8 hPa 0,0 l/m 14,5 km/h (3 Bft) NW 315 0 min
24.10.2018 00:15 12,7 C 7,8 C 10,8 C 80 % 76 % 1019,8 hPa 0,0 l/m 20,6 km/h (4 Bft) SW 215 0 min
24.10.2018 00:20 12,8 C 7,8 C 10,8 C 80 % 76 % 1019,8 hPa 0,0 l/m 16,9 km/h (3 Bft) S 185 0 min
24.10.2018 00:25 12,8 C 7,8 C 10,8 C 80 % 76 % 1019,8 hPa 0,0 l/m 19,4 km/h (3 Bft) W 270 0 min
24.10.2018 00:30 12,9 C 7,8 C 10,8 C 79 % 76 % 1019,8 hPa 0,0 l/m 17,6 km/h (3 Bft) O 80 0 min
24.10.2018 00:35 13,0 C 7,8 C 10,8 C 79 % 76 % 1019,8 hPa 0,0 l/m 13,3 km/h (3 Bft) N-NW 330 0 min
24.10.2018 00:40 13,0 C 7,8 C 10,8 C 79 % 76 % 1019,8 hPa 0,0 l/m 24,2 km/h (4 Bft) N 0 0 min
24.10.2018 00:45 13,0 C 7,8 C 10,8 C 78 % 76 % 1019,8 hPa 0,0 l/m 14,5 km/h (3 Bft) NW 325 0 min
24.10.2018 00:50 13,1 C 7,8 C 10,8 C 78 % 76 % 1019,8 hPa 0,0 l/m 16,9 km/h (3 Bft) W 260 0 min
24.10.2018 00:55 13,1 C 7,8 C 10,8 C 78 % 76 % 1019,8 hPa 0,0 l/m 20,6 km/h (4 Bft) S-SW 210 0 min
24.10.2018 01:00 13,1 C 7,8 C 10,8 C 78 % 76 % 1019,8 hPa 0,0 l/m 15,7 km/h (3 Bft) W-SW 245 0 min
24.10.2018 01:05 13,1 C 7,8 C 10,8 C 79 % 76 % 1018,8 hPa 0,0 l/m 13,9 km/h (3 Bft) W 260 0 min
24.10.2018 01:10 13,1 C 7,8 C 10,8 C 79 % 76 % 1018,8 hPa 0,0 l/m 20,6 km/h (4 Bft) SW 225 0 min
24.10.2018 01:15 13,0 C 7,8 C 10,8 C 80 % 76 % 1018,8 hPa 0,0 l/m 18,2 km/h (3 Bft) SW 235 0 min
24.10.2018 01:20 13,0 C 7,8 C 10,8 C 80 % 76 % 1018,8 hPa 0,0 l/m 24,2 km/h (4 Bft) NW 320 0 min
24.10.2018 01:25 12,9 C 7,8 C 10,8 C 81 % 76 % 1018,8 hPa 0,0 l/m 18,8 km/h (3 Bft) W-NW 290 0 min
24.10.2018 01:30 12,9 C 7,8 C 10,8 C 81 % 76 % 1018,8 hPa 0,0 l/m 20,6 km/h (4 Bft) SW 215 0 min
24.10.2018 01:35 12,9 C 7,8 C 10,8 C 81 % 76 % 1017,8 hPa 0,0 l/m 24,8 km/h (4 Bft) N-NW 345 0 min
24.10.2018 01:40 13,0 C 7,8 C 10,8 C 81 % 76 % 1017,8 hPa 0,0 l/m 24,2 km/h (4 Bft) W-NW 295 0 min
24.10.2018 01:45 13,0 C 7,8 C 10,8 C 81 % 76 % 1017,8 hPa 0,0 l/m 20,0 km/h (4 Bft) NW 325 0 min
24.10.2018 01:50 13,1 C 7,8 C 10,8 C 81 % 76 % 1018,8 hPa 0,0 l/m 21,2 km/h (4 Bft) W 280 0 min
24.10.2018 01:55 13,2 C 7,8 C 10,8 C 80 % 76 % 1018,8 hPa 0,0 l/m 15,7 km/h (3 Bft) W-SW 255 0 min
24.10.2018 02:00 13,3 C 7,8 C 10,8 C 80 % 76 % 1018,8 hPa 0,0 l/m 18,2 km/h (3 Bft) S 190 0 min
24.10.2018 02:05 13,3 C 7,8 C 10,8 C 80 % 76 % 1018,8 hPa 0,0 l/m 22,4 km/h (4 Bft) N-NW 345 0 min
24.10.2018 02:10 13,3 C 7,8 C 10,8 C 80 % 76 % 1018,8 hPa 0,0 l/m 19,4 km/h (3 Bft) W-NW 290 0 min
24.10.2018 02:15 13,4 C 7,8 C 10,8 C 80 % 76 % 1018,8 hPa 0,0 l/m 21,8 km/h (4 Bft) NW 310 0 min
24.10.2018 02:20 13,4 C 7,8 C 10,8 C 79 % 76 % 1018,8 hPa 0,0 l/m 30,9 km/h (5 Bft) W 280 0 min
24.10.2018 02:25 13,4 C 7,8 C 10,8 C 79 % 76 % 1018,8 hPa 0,0 l/m 27,8 km/h (5 Bft) W-NW 285 0 min
24.10.2018 02:30 13,5 C 7,8 C 10,8 C 79 % 76 % 1018,8 hPa 0,0 l/m 24,8 km/h (4 Bft) W-NW 285 0 min
24.10.2018 02:35 13,5 C 7,8 C 10,8 C 79 % 76 % 1018,8 hPa 0,0 l/m 29,0 km/h (5 Bft) W-SW 240 0 min
24.10.2018 02:40 13,5 C 7,8 C 10,8 C 79 % 76 % 1018,8 hPa 0,0 l/m 27,1 km/h (5 Bft) NW 310 0 min
24.10.2018 02:45 13,5 C 7,8 C 10,8 C 79 % 76 % 1018,8 hPa 0,0 l/m 28,6 km/h (5 Bft) N-NW 330 0 min
24.10.2018 02:50 13,5 C 7,8 C 10,8 C 79 % 76 % 1018,8 hPa 0,0 l/m 26,0 km/h (4 Bft) NW 315 0 min
24.10.2018 02:55 13,4 C 7,8 C 10,8 C 80 % 76 % 1018,8 hPa 0,0 l/m 33,3 km/h (5 Bft) NW 305 0 min
24.10.2018 03:00 13,3 C 7,8 C 10,8 C 82 % 76 % 1018,8 hPa 0,0 l/m 29,8 km/h (5 Bft) W-NW 300 0 min
24.10.2018 03:05 13,3 C 7,8 C 10,8 C 82 % 76 % 1018,8 hPa 0,0 l/m 29,0 km/h (5 Bft) S-SW 195 0 min
24.10.2018 03:10 13,2 C 7,8 C 10,8 C 83 % 76 % 1018,8 hPa 0,0 l/m 23,6 km/h (4 Bft) W-NW 290 0 min
24.10.2018 03:15 13,3 C 7,8 C 10,8 C 83 % 76 % 1018,8 hPa 0,0 l/m 24,2 km/h (4 Bft) W 280 0 min
24.10.2018 03:20 13,3 C 7,8 C 10,8 C 83 % 76 % 1018,8 hPa 0,0 l/m 27,8 km/h (5 Bft) W-NW 295 0 min
24.10.2018 03:25 13,3 C 7,8 C 10,8 C 83 % 76 % 1018,8 hPa 0,0 l/m 29,0 km/h (5 Bft) W-NW 285 0 min
24.10.2018 03:30 13,3 C 7,8 C 10,8 C 83 % 76 % 1018,8 hPa 0,0 l/m 26,3 km/h (4 Bft) NW 310 0 min
24.10.2018 03:35 13,4 C 7,8 C 10,8 C 83 % 76 % 1017,8 hPa 0,0 l/m 27,8 km/h (5 Bft) W 275 0 min
24.10.2018 03:40 13,5 C 7,8 C 10,8 C 83 % 76 % 1017,8 hPa 0,0 l/m 26,3 km/h (4 Bft) W 275 0 min
24.10.2018 03:45 13,5 C 7,8 C 10,8 C 82 % 76 % 1017,8 hPa 0,0 l/m 33,7 km/h (5 Bft) NW 325 0 min
24.10.2018 03:50 13,6 C 7,8 C 10,8 C 82 % 76 % 1018,8 hPa 0,0 l/m 34,8 km/h (5 Bft) W-NW 295 0 min
24.10.2018 03:55 13,7 C 7,8 C 10,8 C 81 % 76 % 1018,8 hPa 0,0 l/m 31,7 km/h (5 Bft) NW 325 0 min
24.10.2018 04:00 13,7 C 7,8 C 10,8 C 81 % 76 % 1018,8 hPa 0,0 l/m 28,6 km/h (5 Bft) W 275 0 min
24.10.2018 04:05 13,7 C 7,8 C 10,8 C 81 % 76 % 1017,8 hPa 0,0 l/m 27,1 km/h (5 Bft) S-SW 210 0 min
24.10.2018 04:10 13,7 C 7,8 C 10,8 C 81 % 76 % 1017,8 hPa 0,0 l/m 31,3 km/h (5 Bft) NW 310 0 min
24.10.2018 04:15 13,8 C 7,8 C 10,8 C 81 % 76 % 1017,7 hPa 0,0 l/m 37,1 km/h (5 Bft) NW 305 0 min
24.10.2018 04:20 13,8 C 7,8 C 10,8 C 81 % 76 % 1018,8 hPa 0,0 l/m 34,0 km/h (5 Bft) N-NO 15 0 min
24.10.2018 04:25 13,8 C 7,8 C 10,8 C 81 % 76 % 1018,8 hPa 0,0 l/m 27,8 km/h (5 Bft) W-NW 290 0 min
24.10.2018 04:30 13,9 C 7,8 C 10,8 C 80 % 76 % 1018,8 hPa 0,0 l/m 32,5 km/h (5 Bft) NW 305 0 min
24.10.2018 04:35 13,9 C 7,8 C 10,8 C 80 % 76 % 1018,8 hPa 0,0 l/m 30,5 km/h (5 Bft) W 260 0 min
24.10.2018 04:40 13,9 C 7,8 C 10,8 C 80 % 76 % 1018,8 hPa 0,0 l/m 29,8 km/h (5 Bft) W 280 0 min
24.10.2018 04:45 14,0 C 7,8 C 10,8 C 80 % 76 % 1018,8 hPa 0,0 l/m 33,7 km/h (5 Bft) W-NW 295 0 min
24.10.2018 04:50 13,9 C 7,8 C 10,8 C 80 % 76 % 1018,8 hPa 0,0 l/m 25,4 km/h (4 Bft) NW 305 0 min
24.10.2018 04:55 13,9 C 7,8 C 10,8 C 80 % 76 % 1018,8 hPa 0,0 l/m 27,1 km/h (5 Bft) S-SW 195 0 min
24.10.2018 05:00 13,8 C 7,8 C 10,8 C 81 % 76 % 1018,8 hPa 0,0 l/m 32,5 km/h (5 Bft) NW 305 0 min
24.10.2018 05:05 13,7 C 7,8 C 10,8 C 82 % 76 % 1018,8 hPa 0,0 l/m 29,0 km/h (5 Bft) W-NW 290 0 min
24.10.2018 05:10 13,5 C 7,8 C 10,8 C 83 % 76 % 1018,8 hPa 0,0 l/m 28,2 km/h (5 Bft) W 280 0 min
24.10.2018 05:15 13,4 C 7,8 C 10,8 C 84 % 76 % 1018,8 hPa 0,0 l/m 27,1 km/h (5 Bft) W 265 0 min
24.10.2018 05:20 13,3 C 7,8 C 10,8 C 85 % 76 % 1018,8 hPa 0,0 l/m 25,4 km/h (4 Bft) W-SW 255 0 min
24.10.2018 05:25 13,2 C 7,8 C 10,8 C 85 % 76 % 1018,8 hPa 0,0 l/m 21,2 km/h (4 Bft) W-NW 290 0 min
24.10.2018 05:30 13,2 C 7,8 C 10,8 C 86 % 76 % 1018,8 hPa 0,0 l/m 22,4 km/h (4 Bft) W-SW 240 0 min
24.10.2018 05:35 13,1 C 7,8 C 10,8 C 86 % 76 % 1019,8 hPa 0,0 l/m 20,6 km/h (4 Bft) W-NW 300 0 min
24.10.2018 05:40 13,1 C 7,8 C 10,8 C 87 % 76 % 1019,8 hPa 0,0 l/m 29,0 km/h (5 Bft) NW 315 0 min
24.10.2018 05:45 13,1 C 7,8 C 10,8 C 87 % 76 % 1019,8 hPa 0,0 l/m 24,8 km/h (4 Bft) W-NW 300 0 min
24.10.2018 05:50 13,1 C 7,8 C 10,8 C 87 % 76 % 1017,8 hPa 0,0 l/m 26,3 km/h (4 Bft) NW 315 0 min
24.10.2018 05:55 13,1 C 7,8 C 10,8 C 87 % 76 % 1017,8 hPa 0,0 l/m 27,8 km/h (5 Bft) NW 315 0 min
24.10.2018 06:00 13,1 C 7,8 C 10,8 C 87 % 76 % 1017,8 hPa 0,0 l/m 23,6 km/h (4 Bft) W 265 0 min
24.10.2018 06:05 13,1 C 7,8 C 10,8 C 88 % 76 % 1018,8 hPa 0,0 l/m 28,6 km/h (5 Bft) NW 305 0 min
24.10.2018 06:10 13,1 C 7,8 C 10,8 C 88 % 76 % 1018,8 hPa 0,0 l/m 26,3 km/h (4 Bft) W 260 0 min
24.10.2018 06:15 13,1 C 7,8 C 10,8 C 88 % 76 % 1018,8 hPa 0,0 l/m 24,2 km/h (4 Bft) W-SW 250 0 min
24.10.2018 06:20 13,1 C 7,8 C 10,8 C 88 % 76 % 1018,8 hPa 0,0 l/m 20,6 km/h (4 Bft) S-SW 205 0 min
24.10.2018 06:25 13,2 C 7,8 C 10,8 C 88 % 76 % 1018,8 hPa 0,0 l/m 27,1 km/h (5 Bft) NW 305 0 min
24.10.2018 06:30 13,3 C 7,8 C 10,8 C 88 % 76 % 1018,8 hPa 0,0 l/m 20,6 km/h (4 Bft) W 275 0 min
24.10.2018 06:35 13,3 C 7,8 C 10,8 C 88 % 76 % 1018,8 hPa 0,0 l/m 23,6 km/h (4 Bft) NW 310 0 min
24.10.2018 06:40 13,4 C 7,8 C 10,8 C 88 % 76 % 1018,8 hPa 0,0 l/m 26,0 km/h (4 Bft) NW 310 0 min
24.10.2018 06:45 13,4 C 7,8 C 10,8 C 88 % 76 % 1018,8 hPa 0,0 l/m 29,0 km/h (5 Bft) W-NW 295 0 min
24.10.2018 06:50 13,4 C 7,8 C 10,8 C 88 % 76 % 1018,8 hPa 0,0 l/m 26,3 km/h (4 Bft) W 280 0 min
24.10.2018 06:55 13,4 C 7,8 C 10,8 C 88 % 76 % 1018,8 hPa 0,0 l/m 24,8 km/h (4 Bft) NW 310 0 min
24.10.2018 07:00 13,4 C 7,8 C 10,8 C 88 % 76 % 1018,8 hPa 0,0 l/m 26,0 km/h (4 Bft) W 260 0 min
24.10.2018 07:05 13,4 C 7,8 C 10,8 C 88 % 76 % 1018,8 hPa 0,0 l/m 30,2 km/h (5 Bft) W-NW 295 0 min
24.10.2018 07:10 13,4 C 7,8 C 10,8 C 88 % 76 % 1018,8 hPa 0,3 l/m 27,1 km/h (5 Bft) W-NW 300 0 min
24.10.2018 07:15 13,4 C 7,8 C 10,8 C 89 % 76 % 1018,8 hPa 0,0 l/m 29,4 km/h (5 Bft) W-SW 250 0 min
24.10.2018 07:20 13,4 C 7,8 C 10,8 C 89 % 76 % 1018,8 hPa 0,0 l/m 32,5 km/h (5 Bft) NW 305 0 min
24.10.2018 07:25 13,5 C 7,8 C 10,8 C 89 % 76 % 1018,8 hPa 0,0 l/m 31,3 km/h (5 Bft) W-NW 295 0 min
24.10.2018 07:30 13,5 C 7,8 C 10,8 C 89 % 76 % 1018,8 hPa 0,0 l/m 26,7 km/h (4 Bft) NW 305 0 min
24.10.2018 07:35 13,5 C 7,8 C 10,8 C 88 % 76 % 1018,8 hPa 0,0 l/m 29,0 km/h (5 Bft) W 275 0 min
24.10.2018 07:40 13,6 C 7,8 C 10,8 C 88 % 76 % 1018,8 hPa 0,0 l/m 28,6 km/h (5 Bft) NW 310 0 min
24.10.2018 07:45 13,6 C 7,8 C 10,8 C 88 % 76 % 1018,8 hPa 0,0 l/m 24,8 km/h (4 Bft) NW 315 0 min
24.10.2018 07:50 13,7 C 7,8 C 10,8 C 88 % 76 % 1018,8 hPa 0,0 l/m 27,8 km/h (5 Bft) W 270 0 min
24.10.2018 07:55 13,7 C 7,8 C 10,8 C 88 % 76 % 1018,8 hPa 0,0 l/m 30,9 km/h (5 Bft) NW 305 0 min
24.10.2018 08:00 13,7 C 7,8 C 10,8 C 88 % 76 % 1018,8 hPa 0,0 l/m 24,8 km/h (4 Bft) W-NW 290 0 min
24.10.2018 08:05 13,7 C 7,8 C 10,8 C 88 % 76 % 1018,8 hPa 0,0 l/m 26,3 km/h (4 Bft) W-NW 285 0 min
24.10.2018 08:10 13,7 C 7,8 C 10,8 C 88 % 76 % 1018,8 hPa 0,0 l/m 28,6 km/h (5 Bft) W-NW 300 0 min
24.10.2018 08:15 13,7 C 7,8 C 10,8 C 88 % 76 % 1018,8 hPa 0,0 l/m 28,2 km/h (5 Bft) W 265 0 min
24.10.2018 08:20 13,7 C 7,8 C 10,8 C 88 % 76 % 1017,8 hPa 0,0 l/m 24,2 km/h (4 Bft) W-NW 295 0 min
24.10.2018 08:25 13,7 C 7,8 C 10,8 C 88 % 76 % 1017,8 hPa 0,0 l/m 33,7 km/h (5 Bft) W-SW 255 0 min
24.10.2018 08:30 13,8 C 7,8 C 10,8 C 88 % 76 % 1017,7 hPa 0,0 l/m 26,3 km/h (4 Bft) W-NW 285 0 min
24.10.2018 08:35 13,8 C 7,8 C 10,8 C 87 % 76 % 1019,8 hPa 0,0 l/m 27,4 km/h (5 Bft) NW 320 0 min
24.10.2018 08:40 13,8 C 7,8 C 10,8 C 87 % 76 % 1019,8 hPa 0,0 l/m 29,0 km/h (5 Bft) W-NW 290 0 min
24.10.2018 08:45 13,8 C 7,8 C 10,8 C 88 % 76 % 1019,8 hPa 0,0 l/m 26,7 km/h (4 Bft) W-SW 250 0 min
24.10.2018 08:50 13,7 C 7,8 C 10,8 C 88 % 76 % 1019,8 hPa 0,0 l/m 25,4 km/h (4 Bft) W-NW 290 0 min
24.10.2018 08:55 13,7 C 7,8 C 10,8 C 88 % 76 % 1019,8 hPa 0,0 l/m 21,2 km/h (4 Bft) W-NW 300 0 min
24.10.2018 09:00 13,7 C 7,8 C 10,8 C 88 % 76 % 1019,8 hPa 0,0 l/m 24,8 km/h (4 Bft) W 275 0 min
24.10.2018 09:05 13,7 C 7,8 C 10,8 C 89 % 76 % 1019,8 hPa 0,0 l/m 23,0 km/h (4 Bft) W 280 0 min
24.10.2018 09:10 13,7 C 7,8 C 10,8 C 89 % 76 % 1019,8 hPa 0,0 l/m 18,8 km/h (3 Bft) N-NW 330 0 min
24.10.2018 09:15 13,7 C 7,8 C 10,8 C 89 % 76 % 1019,8 hPa 0,0 l/m 18,8 km/h (3 Bft) N-NW 330 0 min
24.10.2018 09:20 13,7 C 7,8 C 10,8 C 89 % 76 % 1019,8 hPa 0,0 l/m 18,8 km/h (3 Bft) N-NW 330 0 min
24.10.2018 09:25 13,7 C 7,8 C 10,8 C 89 % 76 % 1019,8 hPa 0,3 l/m 28,6 km/h (5 Bft) NW 315 0 min
24.10.2018 09:30 13,8 C 7,8 C 10,8 C 88 % 76 % 1019,8 hPa 0,0 l/m 34,4 km/h (5 Bft) NW 315 0 min
24.10.2018 09:35 13,9 C 7,8 C 10,8 C 88 % 76 % 1020,8 hPa 0,0 l/m 25,4 km/h (4 Bft) NW 315 0 min
24.10.2018 09:40 13,9 C 7,8 C 10,8 C 88 % 76 % 1020,8 hPa 0,0 l/m 23,6 km/h (4 Bft) NW 310 0 min
24.10.2018 09:45 14,0 C 7,8 C 10,8 C 87 % 76 % 1020,8 hPa 0,0 l/m 29,0 km/h (5 Bft) NW 320 0 min
24.10.2018 09:50 14,0 C 7,8 C 10,8 C 87 % 76 % 1019,8 hPa 0,0 l/m 23,6 km/h (4 Bft) W 275 0 min
24.10.2018 09:55 14,1 C 7,8 C 10,8 C 86 % 76 % 1019,8 hPa 0,0 l/m 27,4 km/h (5 Bft) W-NW 295 0 min
24.10.2018 10:00 14,2 C 7,8 C 10,8 C 86 % 76 % 1019,8 hPa 0,0 l/m 24,2 km/h (4 Bft) NW 310 0 min
24.10.2018 10:05 14,2 C 7,8 C 10,8 C 85 % 76 % 1020,8 hPa 0,0 l/m 27,8 km/h (5 Bft) W-NW 285 0 min
24.10.2018 10:10 14,3 C 7,8 C 10,8 C 85 % 76 % 1020,8 hPa 0,0 l/m 23,0 km/h (4 Bft) W-NW 285 0 min
24.10.2018 10:15 14,3 C 7,8 C 10,8 C 85 % 76 % 1020,8 hPa 0,0 l/m 22,4 km/h (4 Bft) W-NW 285 0 min
24.10.2018 10:20 14,3 C 7,8 C 10,8 C 85 % 76 % 1020,8 hPa 0,0 l/m 20,6 km/h (4 Bft) W-NW 295 0 min
24.10.2018 10:25 14,3 C 7,8 C 10,8 C 85 % 76 % 1020,8 hPa 0,0 l/m 26,0 km/h (4 Bft) W-SW 245 0 min
24.10.2018 10:30 14,2 C 7,8 C 10,8 C 85 % 76 % 1020,8 hPa 0,0 l/m 24,2 km/h (4 Bft) W-SW 240 0 min
24.10.2018 10:35 14,1 C 7,8 C 10,8 C 86 % 76 % 1019,8 hPa 0,0 l/m 23,0 km/h (4 Bft) SW 225 0 min
24.10.2018 10:40 14,2 C 7,8 C 10,8 C 86 % 76 % 1019,8 hPa 0,0 l/m 16,3 km/h (3 Bft) NW 305 0 min
24.10.2018 10:45 14,1 C 7,8 C 10,8 C 86 % 76 % 1019,8 hPa 0,0 l/m 26,0 km/h (4 Bft) NW 315 0 min
24.10.2018 10:50 14,0 C 7,8 C 10,8 C 86 % 76 % 1020,8 hPa 0,3 l/m 19,4 km/h (3 Bft) NW 305 0 min
24.10.2018 10:55 14,0 C 7,8 C 10,8 C 87 % 76 % 1020,8 hPa 0,3 l/m 26,3 km/h (4 Bft) W-NW 285 0 min
24.10.2018 11:00 13,8 C 7,8 C 10,8 C 87 % 76 % 1020,8 hPa 0,6 l/m 21,8 km/h (4 Bft) N-NW 340 0 min
24.10.2018 11:05 13,8 C 7,8 C 10,8 C 87 % 76 % 1020,8 hPa 0,0 l/m 18,2 km/h (3 Bft) W-NW 295 0 min
24.10.2018 11:10 13,9 C 7,8 C 10,8 C 88 % 76 % 1020,8 hPa 0,0 l/m 18,2 km/h (3 Bft) NW 320 0 min
24.10.2018 11:15 13,9 C 7,8 C 10,8 C 88 % 76 % 1020,8 hPa 0,3 l/m 19,4 km/h (3 Bft) N 10 0 min
24.10.2018 11:20 14,1 C 7,8 C 10,8 C 88 % 76 % 1020,8 hPa 0,0 l/m 23,0 km/h (4 Bft) NW 310 0 min
24.10.2018 11:25 13,9 C 7,8 C 10,8 C 88 % 76 % 1020,8 hPa 0,0 l/m 26,3 km/h (4 Bft) W-NW 295 0 min
24.10.2018 11:30 14,1 C 7,8 C 10,8 C 88 % 76 % 1020,8 hPa 0,0 l/m 19,4 km/h (3 Bft) W-SW 240 0 min
24.10.2018 11:35 13,9 C 7,8 C 10,8 C 88 % 76 % 1020,8 hPa 0,0 l/m 29,0 km/h (5 Bft) NW 315 0 min
24.10.2018 11:40 13,8 C 7,8 C 10,8 C 88 % 76 % 1020,8 hPa 0,0 l/m 28,2 km/h (5 Bft) NW 305 0 min
24.10.2018 11:45 13,9 C 7,8 C 10,8 C 87 % 76 % 1020,8 hPa 0,3 l/m 27,1 km/h (5 Bft) N-NW 345 0 min
24.10.2018 11:50 13,9 C 7,8 C 10,8 C 87 % 76 % 1021,8 hPa 0,0 l/m 29,8 km/h (5 Bft) NW 320 0 min
24.10.2018 11:55 14,0 C 7,8 C 10,8 C 87 % 76 % 1021,8 hPa 0,0 l/m 27,1 km/h (5 Bft) W 265 0 min
24.10.2018 12:00 14,1 C 7,8 C 10,8 C 86 % 76 % 1021,8 hPa 0,0 l/m 25,4 km/h (4 Bft) W-NW 285 0 min
24.10.2018 12:05 14,5 C 7,8 C 10,8 C 86 % 76 % 1020,8 hPa 0,0 l/m 17,6 km/h (3 Bft) W-NW 290 0 min
24.10.2018 12:10 14,6 C 7,8 C 10,8 C 85 % 76 % 1020,8 hPa 0,0 l/m 31,3 km/h (5 Bft) N 350 0 min
24.10.2018 12:15 14,8 C 7,8 C 10,8 C 84 % 76 % 1020,7 hPa 0,0 l/m 26,3 km/h (4 Bft) W-NW 300 0 min
24.10.2018 12:20 14,7 C 7,8 C 10,8 C 82 % 76 % 1020,7 hPa 0,0 l/m 26,3 km/h (4 Bft) W-NW 290 0 min
24.10.2018 12:25 14,7 C 7,8 C 10,8 C 81 % 76 % 1020,7 hPa 0,0 l/m 21,2 km/h (4 Bft) W-NW 285 0 min
24.10.2018 12:30 14,6 C 7,8 C 10,8 C 81 % 76 % 1020,8 hPa 0,0 l/m 24,2 km/h (4 Bft) W 265 0 min
24.10.2018 12:35 14,4 C 7,8 C 10,8 C 81 % 76 % 1021,8 hPa 0,0 l/m 22,4 km/h (4 Bft) NW 320 0 min
24.10.2018 12:40 14,5 C 7,8 C 10,8 C 80 % 76 % 1021,8 hPa 0,0 l/m 28,6 km/h (5 Bft) W 280 0 min
24.10.2018 12:45 14,6 C 7,8 C 10,8 C 80 % 76 % 1021,8 hPa 0,0 l/m 30,5 km/h (5 Bft) W 265 0 min
24.10.2018 12:50 14,7 C 7,8 C 10,8 C 79 % 76 % 1021,8 hPa 0,0 l/m 18,8 km/h (3 Bft) N-NW 335 0 min
24.10.2018 12:55 14,7 C 7,8 C 10,8 C 79 % 76 % 1021,8 hPa 0,0 l/m 19,4 km/h (3 Bft) N-NO 30 0 min
24.10.2018 13:00 15,0 C 7,8 C 10,8 C 79 % 76 % 1021,7 hPa 0,0 l/m 24,8 km/h (4 Bft) W-NW 290 0 min
24.10.2018 13:05 15,1 C 7,8 C 10,8 C 78 % 76 % 1021,7 hPa 0,0 l/m 20,6 km/h (4 Bft) W 265 0 min
24.10.2018 13:10 15,2 C 7,8 C 10,8 C 77 % 76 % 1021,7 hPa 0,0 l/m 23,0 km/h (4 Bft) NW 310 0 min
24.10.2018 13:15 15,1 C 7,8 C 10,8 C 76 % 76 % 1021,7 hPa 0,0 l/m 28,2 km/h (5 Bft) W-NW 290 0 min
24.10.2018 13:20 15,0 C 7,8 C 10,8 C 77 % 76 % 1021,7 hPa 0,0 l/m 21,8 km/h (4 Bft) S-SW 210 0 min
24.10.2018 13:25 15,0 C 7,8 C 10,8 C 76 % 76 % 1021,7 hPa 0,0 l/m 19,4 km/h (3 Bft) W 260 0 min
24.10.2018 13:30 15,2 C 7,8 C 10,8 C 76 % 76 % 1021,7 hPa 0,0 l/m 24,8 km/h (4 Bft) N 350 0 min
24.10.2018 13:35 15,3 C 7,8 C 10,8 C 75 % 76 % 1021,7 hPa 0,0 l/m 21,8 km/h (4 Bft) N-NW 335 0 min
24.10.2018 13:40 15,5 C 7,8 C 10,8 C 76 % 76 % 1021,7 hPa 0,0 l/m 26,0 km/h (4 Bft) W-NW 300 0 min
24.10.2018 13:45 15,7 C 7,8 C 10,8 C 75 % 76 % 1021,7 hPa 0,0 l/m 21,2 km/h (4 Bft) NW 305 1 min
24.10.2018 13:50 15,8 C 7,8 C 10,8 C 73 % 76 % 1020,7 hPa 0,0 l/m 24,2 km/h (4 Bft) W-NW 290 0 min
24.10.2018 13:55 15,7 C 7,8 C 10,8 C 73 % 76 % 1020,7 hPa 0,0 l/m 27,1 km/h (5 Bft) N-NW 330 0 min
24.10.2018 14:00 15,6 C 7,8 C 10,8 C 73 % 76 % 1020,7 hPa 0,0 l/m 29,0 km/h (5 Bft) W-NW 285 0 min
24.10.2018 14:05 15,5 C 7,8 C 10,8 C 73 % 76 % 1020,7 hPa 0,0 l/m 32,9 km/h (5 Bft) NW 325 0 min
24.10.2018 14:10 15,5 C 7,8 C 10,8 C 73 % 76 % 1020,7 hPa 0,0 l/m 35,6 km/h (5 Bft) NW 325 0 min
24.10.2018 14:15 15,4 C 7,8 C 10,8 C 72 % 76 % 1020,7 hPa 0,0 l/m 28,2 km/h (5 Bft) N-NW 330 0 min
24.10.2018 14:20 15,4 C 7,8 C 10,8 C 73 % 76 % 1020,7 hPa 0,0 l/m 23,6 km/h (4 Bft) NW 310 0 min
24.10.2018 14:25 15,4 C 7,8 C 10,8 C 73 % 76 % 1020,7 hPa 0,0 l/m 27,8 km/h (5 Bft) W-NW 300 0 min
24.10.2018 14:30 15,4 C 7,8 C 10,8 C 74 % 76 % 1020,7 hPa 0,0 l/m 25,4 km/h (4 Bft) NW 310 0 min
24.10.2018 14:35 15,4 C 7,8 C 10,8 C 73 % 76 % 1021,7 hPa 0,0 l/m 21,8 km/h (4 Bft) W 270 0 min
24.10.2018 14:40 15,4 C 7,8 C 10,8 C 73 % 76 % 1021,7 hPa 0,0 l/m 24,2 km/h (4 Bft) N-NW 330 0 min
24.10.2018 14:45 15,4 C 7,8 C 10,8 C 73 % 76 % 1021,7 hPa 0,0 l/m 28,6 km/h (5 Bft) W-NW 290 0 min
24.10.2018 14:50 15,3 C 7,8 C 10,8 C 73 % 76 % 1021,7 hPa 0,0 l/m 29,4 km/h (5 Bft) W-NW 295 0 min
24.10.2018 14:55 15,2 C 7,8 C 10,8 C 73 % 76 % 1021,7 hPa 0,0 l/m 31,3 km/h (5 Bft) W-NW 290 0 min
24.10.2018 15:00 15,1 C 7,8 C 10,8 C 73 % 76 % 1021,7 hPa 0,0 l/m 30,9 km/h (5 Bft) NW 310 0 min
24.10.2018 15:05 15,2 C 7,8 C 10,8 C 73 % 76 % 1020,7 hPa 0,0 l/m 28,2 km/h (5 Bft) W-NW 300 0 min
24.10.2018 15:10 15,2 C 7,8 C 10,8 C 73 % 76 % 1020,7 hPa 0,0 l/m 31,3 km/h (5 Bft) NW 305 0 min
24.10.2018 15:15 15,3 C 7,8 C 10,8 C 73 % 76 % 1020,7 hPa 0,0 l/m 26,0 km/h (4 Bft) NW 310 0 min
24.10.2018 15:20 15,3 C 7,8 C 10,8 C 73 % 76 % 1020,7 hPa 0,0 l/m 26,3 km/h (4 Bft) W-NW 295 0 min
24.10.2018 15:25 15,4 C 7,8 C 10,8 C 73 % 76 % 1020,7 hPa 0,0 l/m 22,4 km/h (4 Bft) NW 310 0 min
24.10.2018 15:30 15,5 C 7,8 C 10,8 C 73 % 76 % 1020,7 hPa 0,0 l/m 20,0 km/h (4 Bft) N 0 0 min
24.10.2018 15:35 15,5 C 7,8 C 10,8 C 73 % 76 % 1020,7 hPa 0,0 l/m 21,2 km/h (4 Bft) NW 310 0 min
24.10.2018 15:40 15,5 C 7,8 C 10,8 C 72 % 76 % 1020,7 hPa 0,0 l/m 21,8 km/h (4 Bft) N 350 0 min
24.10.2018 15:45 15,4 C 7,8 C 10,8 C 73 % 76 % 1020,7 hPa 0,0 l/m 19,4 km/h (3 Bft) W-NW 295 0 min
24.10.2018 15:50 15,1 C 7,8 C 10,8 C 74 % 76 % 1021,7 hPa 0,0 l/m 24,8 km/h (4 Bft) NW 315 0 min
24.10.2018 15:55 15,1 C 7,8 C 10,8 C 74 % 76 % 1021,7 hPa 0,0 l/m 26,3 km/h (4 Bft) NW 310 0 min
24.10.2018 16:00 15,0 C 7,8 C 10,8 C 74 % 76 % 1021,7 hPa 0,0 l/m 26,7 km/h (4 Bft) NW 305 0 min
24.10.2018 16:05 15,0 C 7,8 C 10,8 C 74 % 76 % 1020,7 hPa 0,0 l/m 21,2 km/h (4 Bft) W 280 0 min
24.10.2018 16:10 15,0 C 7,8 C 10,8 C 74 % 76 % 1020,7 hPa 0,0 l/m 25,4 km/h (4 Bft) W-NW 300 0 min
24.10.2018 16:15 14,9 C 7,8 C 10,8 C 75 % 76 % 1020,7 hPa 0,0 l/m 24,8 km/h (4 Bft) W-NW 300 0 min
24.10.2018 16:20 15,0 C 7,8 C 10,8 C 74 % 76 % 1020,7 hPa 0,0 l/m 21,8 km/h (4 Bft) N 10 0 min
24.10.2018 16:25 15,0 C 7,8 C 10,8 C 75 % 76 % 1020,7 hPa 0,0 l/m 19,4 km/h (3 Bft) SW 230 0 min
24.10.2018 16:30 15,0 C 7,8 C 10,8 C 75 % 76 % 1020,7 hPa 0,0 l/m 24,2 km/h (4 Bft) W-NW 285 0 min
24.10.2018 16:35 14,9 C 7,8 C 10,8 C 75 % 76 % 1020,7 hPa 0,0 l/m 18,8 km/h (3 Bft) W-NW 300 0 min
24.10.2018 16:40 14,9 C 7,8 C 10,8 C 76 % 76 % 1020,7 hPa 0,0 l/m 18,2 km/h (3 Bft) W-NW 285 0 min
24.10.2018 16:45 14,9 C 7,8 C 10,8 C 75 % 76 % 1020,7 hPa 0,0 l/m 21,8 km/h (4 Bft) W 280 0 min
24.10.2018 16:50 14,8 C 7,8 C 10,8 C 75 % 76 % 1020,7 hPa 0,0 l/m 21,2 km/h (4 Bft) NW 310 0 min
24.10.2018 16:55 14,8 C 7,8 C 10,8 C 76 % 76 % 1020,7 hPa 0,0 l/m 23,0 km/h (4 Bft) W-NW 290 0 min
24.10.2018 17:00 14,8 C 7,8 C 10,8 C 75 % 76 % 1020,7 hPa 0,0 l/m 20,6 km/h (4 Bft) W-NW 300 0 min
24.10.2018 17:05 14,8 C 7,8 C 10,8 C 76 % 76 % 1021,8 hPa 0,0 l/m 23,0 km/h (4 Bft) NW 310 0 min
24.10.2018 17:10 14,8 C 7,8 C 10,8 C 76 % 76 % 1021,8 hPa 0,0 l/m 19,4 km/h (3 Bft) NW 310 0 min
24.10.2018 17:15 14,8 C 7,8 C 10,8 C 76 % 76 % 1021,8 hPa 0,0 l/m 25,4 km/h (4 Bft) W-NW 295 0 min
24.10.2018 17:20 14,8 C 7,8 C 10,8 C 76 % 76 % 1021,8 hPa 0,0 l/m 24,8 km/h (4 Bft) W 280 0 min
24.10.2018 17:25 14,7 C 7,8 C 10,8 C 76 % 76 % 1021,8 hPa 0,0 l/m 29,4 km/h (5 Bft) NW 315 0 min
24.10.2018 17:30 14,8 C 7,8 C 10,8 C 76 % 76 % 1021,8 hPa 0,0 l/m 22,4 km/h (4 Bft) W-NW 295 0 min
24.10.2018 17:35 14,6 C 7,8 C 10,8 C 76 % 76 % 1021,8 hPa 0,0 l/m 28,6 km/h (5 Bft) NW 305 0 min
24.10.2018 17:40 14,5 C 7,8 C 10,8 C 77 % 76 % 1021,8 hPa 0,0 l/m 23,6 km/h (4 Bft) W-NW 290 0 min
24.10.2018 17:45 14,4 C 7,8 C 10,8 C 78 % 76 % 1021,8 hPa 0,0 l/m 22,4 km/h (4 Bft) NW 310 0 min
24.10.2018 17:50 14,2 C 7,8 C 10,8 C 79 % 76 % 1020,8 hPa 0,0 l/m 15,7 km/h (3 Bft) W-NW 295 0 min
24.10.2018 17:55 14,3 C 7,8 C 10,8 C 79 % 76 % 1020,8 hPa 0,0 l/m 20,0 km/h (4 Bft) W 275 0 min
24.10.2018 18:00 14,4 C 7,8 C 10,8 C 78 % 76 % 1020,8 hPa 0,0 l/m 17,6 km/h (3 Bft) W 280 0 min
24.10.2018 18:05 14,4 C 7,8 C 10,8 C 78 % 76 % 1021,8 hPa 0,0 l/m 20,6 km/h (4 Bft) W-NW 300 0 min
24.10.2018 18:10 14,4 C 7,8 C 10,8 C 78 % 76 % 1021,8 hPa 0,0 l/m 19,4 km/h (3 Bft) NW 305 0 min
24.10.2018 18:15 14,4 C 7,8 C 10,8 C 78 % 76 % 1021,8 hPa 0,0 l/m 17,6 km/h (3 Bft) NW 310 0 min
24.10.2018 18:20 14,5 C 7,8 C 10,8 C 78 % 76 % 1020,8 hPa 0,0 l/m 19,4 km/h (3 Bft) W-NW 290 0 min
24.10.2018 18:25 14,4 C 7,8 C 10,8 C 78 % 76 % 1020,8 hPa 0,0 l/m 16,9 km/h (3 Bft) NW 310 0 min
24.10.2018 18:30 14,4 C 7,8 C 10,8 C 78 % 76 % 1020,8 hPa 0,0 l/m 19,4 km/h (3 Bft) N-NO 25 0 min
24.10.2018 18:35 14,4 C 7,8 C 10,8 C 78 % 76 % 1020,8 hPa 0,0 l/m 24,2 km/h (4 Bft) NW 305 0 min
24.10.2018 18:40 14,2 C 7,8 C 10,8 C 79 % 76 % 1020,8 hPa 0,0 l/m 18,2 km/h (3 Bft) NW 325 0 min
24.10.2018 18:45 14,1 C 7,8 C 10,8 C 80 % 76 % 1020,8 hPa 0,0 l/m 22,4 km/h (4 Bft) NW 325 0 min
24.10.2018 18:50 13,9 C 7,8 C 10,8 C 81 % 76 % 1020,8 hPa 0,0 l/m 24,2 km/h (4 Bft) W-NW 290 0 min
24.10.2018 18:55 13,9 C 7,8 C 10,8 C 82 % 76 % 1020,8 hPa 0,0 l/m 25,4 km/h (4 Bft) W 260 0 min
24.10.2018 19:00 13,9 C 7,8 C 10,8 C 82 % 76 % 1020,8 hPa 0,0 l/m 21,2 km/h (4 Bft) NW 305 0 min
24.10.2018 19:05 13,8 C 7,8 C 10,8 C 82 % 76 % 1021,8 hPa 0,0 l/m 19,4 km/h (3 Bft) W-NW 295 0 min
24.10.2018 19:10 13,7 C 7,8 C 10,8 C 83 % 76 % 1021,8 hPa 0,0 l/m 16,9 km/h (3 Bft) W-NW 300 0 min
24.10.2018 19:15 13,6 C 7,8 C 10,8 C 84 % 76 % 1021,8 hPa 0,0 l/m 13,9 km/h (3 Bft) N-NW 335 0 min
24.10.2018 19:20 13,6 C 7,8 C 10,8 C 84 % 76 % 1021,8 hPa 0,0 l/m 18,2 km/h (3 Bft) W 265 0 min
24.10.2018 19:25 13,5 C 7,8 C 10,8 C 85 % 76 % 1021,8 hPa 0,0 l/m 21,2 km/h (4 Bft) W 265 0 min
24.10.2018 19:30 13,5 C 7,8 C 10,8 C 85 % 76 % 1021,8 hPa 0,0 l/m 23,0 km/h (4 Bft) W-NW 300 0 min
24.10.2018 19:35 13,3 C 7,8 C 10,8 C 86 % 76 % 1020,8 hPa 0,0 l/m 23,0 km/h (4 Bft) W 275 0 min
24.10.2018 19:40 13,2 C 7,8 C 10,8 C 86 % 76 % 1020,8 hPa 0,0 l/m 19,4 km/h (3 Bft) NW 310 0 min
24.10.2018 19:45 13,2 C 7,8 C 10,8 C 87 % 76 % 1020,8 hPa 0,3 l/m 23,0 km/h (4 Bft) NW 310 0 min
24.10.2018 19:50 13,1 C 7,8 C 10,8 C 87 % 76 % 1020,8 hPa 0,0 l/m 20,6 km/h (4 Bft) NW 305 0 min
24.10.2018 19:55 13,2 C 7,8 C 10,8 C 87 % 76 % 1020,8 hPa 0,0 l/m 16,9 km/h (3 Bft) S-SW 205 0 min
24.10.2018 20:00 13,1 C 7,8 C 10,8 C 87 % 76 % 1020,8 hPa 0,0 l/m 13,3 km/h (3 Bft) NW 320 0 min
24.10.2018 20:05 13,2 C 7,8 C 10,8 C 88 % 76 % 1021,8 hPa 0,0 l/m 8,5 km/h (2 Bft) NW 315 0 min
24.10.2018 20:10 13,1 C 7,8 C 10,8 C 88 % 76 % 1021,8 hPa 0,0 l/m 10,9 km/h (2 Bft) NW 305 0 min
24.10.2018 20:15 13,1 C 7,8 C 10,8 C 88 % 76 % 1021,8 hPa 0,0 l/m 15,7 km/h (3 Bft) W-NW 290 0 min
24.10.2018 20:20 13,1 C 7,8 C 10,8 C 88 % 76 % 1022,8 hPa 0,0 l/m 10,3 km/h (2 Bft) W-NW 295 0 min
24.10.2018 20:25 13,0 C 7,8 C 10,8 C 88 % 76 % 1022,8 hPa 0,0 l/m 10,3 km/h (2 Bft) W-NW 300 0 min
24.10.2018 20:30 12,9 C 7,8 C 10,8 C 88 % 76 % 1022,8 hPa 0,0 l/m 8,5 km/h (2 Bft) W-NW 300 0 min
24.10.2018 20:35 12,9 C 7,8 C 10,8 C 88 % 76 % 1021,8 hPa 0,0 l/m 7,3 km/h (2 Bft) W 270 0 min
24.10.2018 20:40 12,9 C 7,8 C 10,8 C 88 % 76 % 1021,8 hPa 0,0 l/m 7,3 km/h (2 Bft) NW 315 0 min
24.10.2018 20:45 12,9 C 7,8 C 10,8 C 88 % 76 % 1021,8 hPa 0,0 l/m 6,7 km/h (2 Bft) W 265 0 min
24.10.2018 20:50 12,9 C 7,8 C 10,8 C 88 % 76 % 1020,8 hPa 0,0 l/m 5,4 km/h (2 Bft) NW 305 0 min
24.10.2018 20:55 12,9 C 7,8 C 10,8 C 88 % 76 % 1020,8 hPa 0,0 l/m 3,6 km/h (1 Bft) W 275 0 min
24.10.2018 21:00 12,9 C 7,8 C 10,8 C 88 % 76 % 1020,8 hPa 0,0 l/m 4,2 km/h (1 Bft) S 190 0 min
24.10.2018 21:05 12,9 C 7,8 C 10,8 C 88 % 76 % 1022,8 hPa 0,0 l/m 1,2 km/h (1 Bft) W-NW 300 0 min
24.10.2018 21:10 12,8 C 7,8 C 10,8 C 88 % 76 % 1022,8 hPa 0,0 l/m 1,2 km/h (1 Bft) W-SW 245 0 min
24.10.2018 21:15 12,8 C 7,8 C 10,8 C 88 % 76 % 1022,8 hPa 0,0 l/m 2,4 km/h (1 Bft) W-NW 290 0 min
24.10.2018 21:20 12,8 C 7,8 C 10,8 C 89 % 76 % 1021,8 hPa 0,0 l/m 2,4 km/h (1 Bft) W 270 0 min
24.10.2018 21:25 12,9 C 7,8 C 10,8 C 89 % 76 % 1021,8 hPa 0,0 l/m 3,6 km/h (1 Bft) W-NW 300 0 min
24.10.2018 21:30 12,9 C 7,8 C 10,8 C 88 % 76 % 1021,8 hPa 0,0 l/m 4,8 km/h (1 Bft) W 275 0 min
24.10.2018 21:35 12,8 C 7,8 C 10,8 C 88 % 76 % 1021,8 hPa 0,0 l/m 9,1 km/h (2 Bft) W-SW 240 0 min
24.10.2018 21:40 12,8 C 7,8 C 10,8 C 88 % 76 % 1021,8 hPa 0,0 l/m 9,7 km/h (2 Bft) NW 305 0 min
24.10.2018 21:45 12,8 C 7,8 C 10,8 C 87 % 76 % 1021,8 hPa 0,0 l/m 13,3 km/h (3 Bft) NW 305 0 min
24.10.2018 21:50 12,9 C 7,8 C 10,8 C 87 % 76 % 1021,8 hPa 0,0 l/m 16,9 km/h (3 Bft) W-NW 285 0 min
24.10.2018 21:55 12,9 C 7,8 C 10,8 C 87 % 76 % 1021,8 hPa 0,0 l/m 12,1 km/h (2 Bft) W 270 0 min
24.10.2018 22:00 13,0 C 7,8 C 10,8 C 86 % 76 % 1021,8 hPa 0,0 l/m 13,3 km/h (3 Bft) NW 305 0 min
24.10.2018 22:05 13,0 C 7,8 C 10,8 C 86 % 76 % 1021,8 hPa 0,0 l/m 15,7 km/h (3 Bft) S-SO 165 0 min
24.10.2018 22:10 12,9 C 7,8 C 10,8 C 87 % 76 % 1021,8 hPa 0,0 l/m 21,2 km/h (4 Bft) W-NW 300 0 min
24.10.2018 22:15 12,9 C 7,8 C 10,8 C 87 % 76 % 1021,8 hPa 0,0 l/m 16,3 km/h (3 Bft) W-SW 250 0 min
24.10.2018 22:20 12,8 C 7,8 C 10,8 C 87 % 76 % 1021,8 hPa 0,0 l/m 12,7 km/h (3 Bft) W-NW 295 0 min
24.10.2018 22:25 12,8 C 7,8 C 10,8 C 87 % 76 % 1021,8 hPa 0,0 l/m 8,5 km/h (2 Bft) W-NW 300 0 min
24.10.2018 22:30 12,8 C 7,8 C 10,8 C 87 % 76 % 1021,8 hPa 0,0 l/m 8,5 km/h (2 Bft) W-NW 295 0 min
24.10.2018 22:35 12,8 C 7,8 C 10,8 C 87 % 76 % 1020,8 hPa 0,0 l/m 11,5 km/h (2 Bft) W-NW 295 0 min
24.10.2018 22:40 12,9 C 7,8 C 10,8 C 87 % 76 % 1020,8 hPa 0,0 l/m 6,1 km/h (2 Bft) W 270 0 min
24.10.2018 22:45 12,9 C 7,8 C 10,8 C 87 % 76 % 1020,8 hPa 0,0 l/m 9,7 km/h (2 Bft) W-NW 295 0 min
24.10.2018 22:50 12,9 C 7,8 C 10,8 C 87 % 76 % 1021,8 hPa 0,0 l/m 6,1 km/h (2 Bft) W 275 0 min
24.10.2018 22:55 12,9 C 7,8 C 10,8 C 87 % 76 % 1021,8 hPa 0,0 l/m 7,3 km/h (2 Bft) SW 220 0 min
24.10.2018 23:00 12,9 C 7,8 C 10,8 C 87 % 76 % 1021,8 hPa 0,0 l/m 7,3 km/h (2 Bft) W-NW 290 0 min
24.10.2018 23:05 12,9 C 7,8 C 10,8 C 87 % 76 % 1020,8 hPa 0,0 l/m 7,3 km/h (2 Bft) W-SW 255 0 min
24.10.2018 23:10 12,9 C 7,8 C 10,8 C 87 % 76 % 1020,8 hPa 0,0 l/m 6,7 km/h (2 Bft) W 265 0 min
24.10.2018 23:15 12,9 C 7,8 C 10,8 C 87 % 76 % 1020,8 hPa 0,0 l/m 8,5 km/h (2 Bft) SO 135 0 min
24.10.2018 23:20 12,9 C 7,8 C 10,8 C 87 % 76 % 1021,8 hPa 0,0 l/m 7,9 km/h (2 Bft) W-NW 290 0 min
24.10.2018 23:25 12,9 C 7,8 C 10,8 C 87 % 76 % 1021,8 hPa 0,0 l/m 4,2 km/h (1 Bft) S 175 0 min
24.10.2018 23:30 12,8 C 7,8 C 10,8 C 88 % 76 % 1021,8 hPa 0,0 l/m 4,8 km/h (1 Bft) W-NW 285 0 min
24.10.2018 23:35 12,8 C 7,8 C 10,8 C 88 % 76 % 1020,8 hPa 0,0 l/m 5,4 km/h (2 Bft) W 260 0 min
24.10.2018 23:40 12,8 C 7,8 C 10,8 C 88 % 76 % 1020,8 hPa 0,0 l/m 6,7 km/h (2 Bft) W-NW 290 0 min
24.10.2018 23:45 12,8 C 7,8 C 10,8 C 89 % 76 % 1020,8 hPa 0,0 l/m 6,1 km/h (2 Bft) W-SW 240 0 min
24.10.2018 23:50 12,7 C 7,8 C 10,8 C 89 % 76 % 1020,8 hPa 0,0 l/m 7,3 km/h (2 Bft) W-NW 295 0 min
24.10.2018 23:55 12,7 C 7,8 C 10,8 C 89 % 76 % 1020,8 hPa 0,0 l/m 7,9 km/h (2 Bft) W-SW 255 0 min
_ Min-Zeit 00:00 00:00 00:00 14:15 00:00 04:15 - 21:05 - - -
Minimum _ 12,6 C 7,8 C 10,8 C 72 % 76 % 1017,7 hPa - 1,2 km/h (1 Bft) - - -
_ Max-Zeit 13:50 00:00 00:00 07:15 00:00 21:10 11:00 04:15 - - 13:45
Maximum _ 15,8 C 7,8 C 10,8 C 89 % 76 % 1022,8 hPa 0,6 l/m 37,1 km/h
NW (5 Bft)
- - 1 min
Durchschnitt _ 13,8 C 7,8 C 10,8 C 83 % 76 % 1020,3 hPa #2,7 l/m 21,7 km/h (4 Bft) W-NW - #1 min.